[[{"header":{"parameterUnit":"m.s-1","parameterCategory":1,"la1":30.2991,"la2":30.254,"lo1":-89.0895,"lo2":-89.0444,"dy":0.0017,"dx":0.0017,"nx":28,"ny":28,"refTime":"2024-05-05T03:00:00:Z","depth":0,"parameterNumber":2,"parameterNumberName":"U-component_of_WINDS"},"data":[0,0,0,0,0,0,0,0,0,0,0,0,0,0,0,0,0,0,0,0,0,0,0,0,0,0,0,0,0,0,0,0,0,0,0,0,0,0,0,0,0,0,0,0,0,0,0,0,0,0,0,0,0,0,0,0,0,0,-3.7396,-3.7396,0,-3.7402,-3.7402,-3.7402,-3.7365,-3.7364,-3.7363,-3.7362,-3.7369,-3.737,-3.7371,0,0,0,0,0,0,0,0,0,0,0,0,0,-3.7354,-3.7355,-3.7396,-3.7396,-3.7396,-3.7402,-3.7402,-3.7402,-3.7365,-3.7364,-3.7363,-3.7361,-3.7368,-3.737,-3.7371,0,0,0,0,0,0,0,0,0,0,0,0,0,-3.7367,-3.7355,-3.7396,-3.7378,-3.7377,-3.7402,-3.7402,-3.7402,-3.7365,-3.7364,-3.7362,-3.7361,-3.7368,-3.737,-3.7371,-3.7414,0,0,-3.7377,-3.7377,0,0,0,0,0,0,0,0,-3.7367,-3.7369,-3.7381,-3.7379,-3.7378,-3.7381,-3.739,-3.7406,-3.7366,-3.737,-3.7362,-3.736,-3.7374,-3.7375,-3.738,-3.7414,-3.7415,-3.7377,-3.7378,-3.7379,-3.7379,0,0,0,0,0,0,0,-3.7366,-3.7369,-3.7398,-3.7381,-3.7379,-3.7371,-3.7371,-3.7393,-3.7381,-3.7369,-3.7367,-3.7368,-3.7373,-3.7378,-3.738,-3.7415,-3.7377,-3.7378,-3.7379,-3.738,-3.7486,-3.7487,0,0,0,0,0,0,-3.7367,-3.7368,-3.7398,-3.7398,-3.7368,-3.7373,-3.7373,-3.7382,-3.738,-3.7379,-3.7369,-3.7366,-3.7376,-3.7378,-3.738,-3.7429,-3.7379,-3.738,-3.7381,-3.7484,-3.7486,-3.7488,0,0,0,0,0,0,-3.7366,-3.737,-3.7398,-3.7383,-3.7385,-3.7375,-3.7385,-3.7383,-3.7388,-3.738,-3.7378,-3.7377,-3.7375,-3.7377,-3.7406,-3.7429,-3.7381,-3.7383,-3.7482,-3.7484,-3.7487,-3.7529,0,0,0,0,0,0,-3.7365,-3.737,-3.7385,-3.7383,-3.7386,-3.7423,-3.7387,-3.7384,-3.7391,-3.7387,-3.7387,-3.7385,-3.7374,-3.7404,-3.7408,-3.7431,-3.7384,-3.748,-3.7483,-3.7486,-3.7525,-3.7533,-3.7539,0,0,0,0,0,-3.7364,-3.7397,-3.7386,-3.739,-3.7405,-3.7424,-3.7426,-3.7412,-3.7393,-3.7408,-3.7404,-3.7385,-3.7427,-3.7407,-3.7411,-3.7435,-3.7478,-3.7482,-3.7486,-3.7522,-3.7531,-3.7539,0,0,0,0,0,0,-3.7401,-3.7396,-3.7384,-3.7417,-3.7422,-3.7418,-3.7437,-3.7422,-3.7432,-3.7428,-3.7411,-3.7411,-3.7443,-3.7442,-3.742,-3.7477,-3.7449,-3.7454,-3.7475,-3.7484,-3.749,-3.7489,-3.7386,0,0,0,0,0,-3.7414,-3.7429,-3.7424,-3.7454,-3.7457,-3.7447,-3.7455,-3.7444,-3.7448,-3.7449,-3.7447,-3.7452,-3.7466,-3.7475,-3.7488,-3.7527,-3.7526,-3.7545,-3.7552,-3.7558,-3.7561,-3.7582,-3.7591,-3.7501,-3.7501,-3.7501,0,0,-3.7438,-3.7438,-3.7448,-3.7461,-3.7463,-3.748,-3.7448,-3.7467,-3.748,-3.7452,-3.7478,-3.7478,-3.7482,-3.7516,-3.753,-3.7516,-3.7587,-3.7563,-3.7567,-3.7568,-3.7587,-3.7596,-3.7603,-3.7503,-3.7503,-3.7502,0,0,-3.7492,-3.7493,-3.7518,-3.7522,-3.7525,-3.7519,-3.7526,-3.7525,-3.7523,-3.755,-3.753,-3.7545,-3.757,-3.7574,-3.7579,-3.7638,-3.7621,-3.7643,-3.7677,-3.7698,-3.7705,-3.7711,-3.7731,-3.7738,-3.7648,-3.7648,-3.7648,0,-3.7522,-3.7546,-3.7533,-3.7554,-3.756,-3.7537,-3.7563,-3.7567,-3.7575,-3.758,-3.7565,-3.7596,-3.7598,-3.7632,-3.7647,-3.7652,-3.7659,-3.7641,-3.7705,-3.7711,-3.7716,-3.7735,-3.7743,-3.765,-3.765,-3.765,-3.7649,0,-3.7583,-3.7601,-3.7621,-3.7629,-3.7638,-3.7661,-3.7652,-3.7664,-3.7654,-3.7649,-3.7678,-3.7679,-3.7692,-3.77,-3.769,-3.7734,-3.7725,-3.7708,-3.7679,-3.7728,-3.7745,-3.7752,-3.7654,-3.7653,-3.7652,-3.7651,0,0,-3.7656,-3.7659,-3.7667,-3.7671,-3.7675,-3.7688,-3.7712,-3.7725,-3.7734,-3.7742,-3.7761,-3.7784,-3.7769,-3.7775,-3.7766,-3.7784,-3.783,-3.7765,-3.7765,-3.7775,-3.7878,-3.7889,-3.7898,-3.782,-3.7822,-3.7823,-3.7877,0,-3.7708,-3.7746,-3.7736,-3.7774,-3.7791,-3.7771,-3.7791,-3.7797,-3.7795,-3.7809,-3.7807,-3.7823,-3.7802,-3.7806,-3.7823,-3.7821,-3.785,-3.7817,-3.7837,-3.7838,-3.7833,-3.7907,-3.7918,-3.7969,-3.7884,-3.7885,-3.7886,0,-3.7771,-3.7781,-3.7821,-3.7824,-3.7831,-3.7849,-3.7861,-3.7875,-3.7882,-3.7879,-3.7887,-3.7875,-3.7899,-3.7873,-3.7906,-3.7883,-3.7892,-3.7892,-3.7894,-3.7893,-3.7863,-3.7906,-3.7985,-3.7992,-3.7897,-3.7896,-3.7895,0,-3.7819,-3.7843,-3.787,-3.7875,-3.7879,-3.7893,-3.7895,-3.79,-3.7909,-3.7921,-3.7926,-3.794,-3.7947,-3.7959,-3.7951,-3.7933,-3.7985,-3.7958,-3.7983,-3.7983,-3.7992,-3.7991,-3.8071,-3.8002,-3.8002,-3.8002,-3.8002,0,-3.7875,-3.79,-3.7892,-3.7908,-3.7936,-3.7926,-3.7954,-3.7955,-3.796,-3.7977,-3.7962,-3.7979,-3.7969,-3.7985,-3.798,-3.8007,-3.8011,-3.801,-3.8007,-3.8009,-3.8009,-3.8012,-3.8008,-3.8004,-3.8003,-3.8003,-3.8003,0,-3.7931,-3.7927,-3.7955,-3.7958,-3.796,-3.798,-3.7983,-3.7999,-3.7997,-3.8018,-3.8023,-3.802,-3.8038,-3.8033,-3.8053,-3.8049,-3.8084,-3.8078,-3.8081,-3.8079,-3.8103,-3.81,-3.8186,-3.8197,-3.8123,-3.8123,-3.8124,0,-3.7966,-3.7985,-3.7991,-3.8001,-3.8005,-3.8022,-3.8031,-3.8023,-3.8034,-3.8044,-3.8059,-3.8076,-3.8089,-3.8119,-3.8119,-3.8134,-3.8128,-3.8157,-3.8129,-3.8131,-3.8126,-3.8124,-3.8126,-3.8161,-3.8162,-3.8163,-3.8163,0,-3.8029,-3.8026,-3.804,-3.8054,-3.8066,-3.8076,-3.8085,-3.8095,-3.8088,-3.8101,-3.8119,-3.813,-3.8151,-3.8168,-3.8182,-3.8186,-3.8173,-3.8173,-3.8179,-3.8179,-3.818,-3.8178,-3.8093,-3.817,-3.8169,-3.8169,-3.8168,-3.8168,-3.8074,-3.809,-3.8097,-3.8113,-3.812,-3.8129,-3.8144,-3.8145,-3.8161,-3.8176,-3.8172,-3.8193,-3.8201,-3.822,-3.8225,-3.8242,-3.8231,-3.824,-3.8242,-3.8244,-3.8247,-3.818,-3.8245,-3.8245,-3.8245,-3.8245,-3.8245,0,-3.8134,-3.8138,-3.8154,-3.8167,-3.8181,-3.817,-3.818,-3.8192,-3.8211,-3.822,-3.8233,-3.8255,-3.8272,-3.8275,-3.8291,-3.8304,-3.8299,-3.8309,-3.8306,-3.8307,-3.8256,-3.8248,-3.8313,-3.8313,-3.8313,-3.8313,-3.8313,-3.8313,-3.8166,-3.8193,-3.8192,-3.8222,-3.8226,-3.8247,-3.8253,-3.8263,-3.827,-3.8295,-3.8309,-3.8311,-3.8318,-3.8335,-3.8351,-3.8351,-3.8357,-3.8368,-3.8366,-3.8318,-3.8311,-3.8304,-3.8297,-3.837,-3.837,-3.8416,-3.8416,-3.8417]},{"header":{"parameterUnit":"m.s-1","parameterCategory":1,"la1":30.2991,"la2":30.254,"lo1":-89.0895,"lo2":-89.0444,"dy":0.0017,"dx":0.0017,"nx":28,"ny":28,"refTime":"2024-05-05T03:00:00:Z","depth":0,"parameterNumber":3,"parameterNumberName":"V-component_of_WINDS"},"data":[0,0,0,0,0,0,0,0,0,0,0,0,0,0,0,0,0,0,0,0,0,0,0,0,0,0,0,0,0,0,0,0,0,0,0,0,0,0,0,0,0,0,0,0,0,0,0,0,0,0,0,0,0,0,0,0,0,0,3.9009,3.9009,0,3.9003,3.9003,3.9003,3.9018,3.9019,3.9019,3.902,3.9009,3.9008,3.9008,0,0,0,0,0,0,0,0,0,0,0,0,0,3.9031,3.9031,3.9009,3.9009,3.9009,3.9003,3.9003,3.9003,3.9018,3.9019,3.902,3.902,3.9009,3.9009,3.9008,0,0,0,0,0,0,0,0,0,0,0,0,0,3.9023,3.9031,3.9009,3.9016,3.9017,3.9003,3.9003,3.9003,3.9018,3.9019,3.902,3.902,3.901,3.9009,3.9008,3.8986,0,0,3.9004,3.9004,0,0,0,0,0,0,0,0,3.9024,3.9022,3.9015,3.9016,3.9016,3.9012,3.9007,3.8997,3.9018,3.9017,3.902,3.9021,3.9009,3.9008,3.9005,3.8985,3.8985,3.9004,3.9003,3.9003,3.9003,0,0,0,0,0,0,0,3.9024,3.9023,3.9007,3.9015,3.9016,3.9019,3.9018,3.9005,3.9009,3.9018,3.9019,3.9018,3.901,3.9006,3.9005,3.8984,3.9004,3.9003,3.9002,3.9002,3.8947,3.8947,0,0,0,0,0,0,3.9024,3.9023,3.9007,3.9007,3.9022,3.9018,3.9017,3.9013,3.9009,3.901,3.9017,3.9019,3.9008,3.9007,3.9005,3.898,3.9003,3.9002,3.9001,3.8948,3.8947,3.8946,0,0,0,0,0,0,3.9025,3.9023,3.9007,3.9015,3.9013,3.9016,3.9011,3.9012,3.9009,3.9009,3.901,3.9013,3.9009,3.9006,3.8991,3.898,3.9001,3.9,3.8949,3.8948,3.8947,3.893,0,0,0,0,0,0,3.9025,3.9023,3.9015,3.9015,3.9013,3.8994,3.9011,3.9012,3.9008,3.9009,3.9006,3.9006,3.9009,3.8993,3.899,3.8979,3.8999,3.895,3.8949,3.8947,3.8931,3.8928,3.8926,0,0,0,0,0,3.9026,3.9009,3.9015,3.9013,3.9004,3.8993,3.8992,3.8997,3.9007,3.8999,3.8999,3.9006,3.8982,3.8991,3.8988,3.8976,3.8951,3.8949,3.8947,3.8933,3.8929,3.8926,0,0,0,0,0,0,3.9006,3.9009,3.9015,3.8998,3.8996,3.8996,3.8986,3.8993,3.8987,3.8988,3.8994,3.8993,3.8976,3.8975,3.8985,3.8956,3.8968,3.8965,3.8958,3.8954,3.8951,3.8952,3.8998,0,0,0,0,0,3.9,3.8993,3.8995,3.898,3.8979,3.8983,3.8978,3.8983,3.898,3.8978,3.8978,3.8973,3.8965,3.8959,3.8951,3.8931,3.8931,3.8922,3.8919,3.8917,3.8914,3.8905,3.8901,3.8941,3.8941,3.8941,0,0,3.8987,3.8988,3.8982,3.8976,3.8975,3.8966,3.8981,3.8971,3.8965,3.8976,3.8963,3.8962,3.8958,3.894,3.8932,3.8938,3.8904,3.8914,3.8913,3.8912,3.8903,3.8899,3.8896,3.894,3.894,3.894,0,0,3.8959,3.8958,3.8946,3.8945,3.8944,3.8947,3.8944,3.8944,3.8944,3.8931,3.894,3.8932,3.8917,3.8914,3.891,3.8883,3.8889,3.888,3.8865,3.8856,3.8852,3.885,3.8841,3.8838,3.8878,3.8878,3.8878,0,3.8942,3.8931,3.8939,3.8929,3.8926,3.8938,3.8926,3.8924,3.8919,3.8916,3.8923,3.8907,3.8904,3.8887,3.8881,3.8877,3.8874,3.8881,3.8853,3.885,3.8847,3.8839,3.8836,3.8877,3.8877,3.8877,3.8877,0,3.8911,3.8903,3.8894,3.8891,3.8887,3.8876,3.8882,3.8876,3.8881,3.8884,3.887,3.8868,3.8861,3.8857,3.8861,3.8841,3.8845,3.8852,3.8864,3.8843,3.8835,3.8832,3.8876,3.8876,3.8876,3.8876,0,0,3.887,3.8873,3.8869,3.8869,3.8869,3.8863,3.8852,3.8847,3.8843,3.8839,3.8831,3.8819,3.8826,3.8822,3.8826,3.8818,3.8798,3.8826,3.8826,3.8822,3.8776,3.8771,3.8767,3.8802,3.8802,3.8801,3.8777,0,3.8843,3.8827,3.8834,3.8817,3.881,3.8822,3.8813,3.8811,3.8813,3.8807,3.8808,3.8801,3.8811,3.8809,3.8801,3.8802,3.8789,3.8804,3.8794,3.8793,3.8795,3.8763,3.8757,3.8735,3.8774,3.8773,3.8773,0,3.8809,3.8807,3.8789,3.8792,3.879,3.8781,3.8778,3.8772,3.8771,3.8773,3.877,3.8776,3.8765,3.8778,3.8763,3.8773,3.877,3.877,3.8769,3.8768,3.8782,3.8762,3.8727,3.8724,3.8768,3.8768,3.8769,0,3.8782,3.8774,3.8763,3.8762,3.8765,3.8759,3.8759,3.8759,3.8756,3.8752,3.875,3.8745,3.8742,3.8738,3.8742,3.875,3.8727,3.874,3.8729,3.8729,3.8723,3.8723,3.8688,3.872,3.872,3.872,3.872,0,3.8752,3.8741,3.8751,3.8744,3.8733,3.8741,3.8729,3.873,3.873,3.8724,3.8732,3.8726,3.8732,3.8726,3.8729,3.8717,3.8715,3.8717,3.8718,3.8716,3.8716,3.8714,3.8716,3.8719,3.8719,3.872,3.872,0,3.8719,3.8726,3.8715,3.8719,3.872,3.8711,3.8714,3.8707,3.8711,3.8702,3.8701,3.8705,3.8699,3.8703,3.8695,3.8698,3.8683,3.8685,3.8684,3.8685,3.8674,3.8675,3.8636,3.8631,3.8666,3.8665,3.8665,0,3.87,3.8692,3.8696,3.8693,3.8694,3.8688,3.8686,3.8694,3.869,3.8689,3.8683,3.8678,3.8674,3.8663,3.8665,3.8659,3.8662,3.8649,3.8662,3.8661,3.8663,3.8664,3.8664,3.8647,3.8646,3.8646,3.8646,0,3.8665,3.8669,3.8666,3.8664,3.8661,3.866,3.8659,3.8655,3.8663,3.8659,3.8654,3.8651,3.8645,3.8639,3.8635,3.8635,3.8641,3.8642,3.8639,3.8638,3.8637,3.8638,3.8677,3.8643,3.8643,3.8643,3.8643,3.8643,3.8639,3.8633,3.8636,3.8632,3.8633,3.8632,3.8627,3.863,3.8626,3.8623,3.8627,3.862,3.862,3.8616,3.8615,3.8609,3.8614,3.861,3.8609,3.8608,3.8607,3.8638,3.8608,3.8608,3.8608,3.8608,3.8609,0,3.8605,3.8608,3.8605,3.8604,3.8601,3.861,3.8609,3.8606,3.8601,3.8601,3.8597,3.8591,3.8586,3.8589,3.8584,3.858,3.8583,3.8578,3.8579,3.8579,3.8602,3.8606,3.8576,3.8576,3.8576,3.8576,3.8576,3.8576,3.8588,3.8579,3.8583,3.8575,3.8577,3.8572,3.8571,3.8571,3.8571,3.8564,3.8561,3.8563,3.8564,3.856,3.8556,3.8557,3.8555,3.855,3.8552,3.8574,3.8577,3.858,3.8583,3.8549,3.8549,3.8529,3.8529,3.8528]}]]